Time,TemperatureF,DewpointF,PressureIn,WindDirection,WindDirectionDegrees,WindSpeedMPH,WindSpeedGustMPH,Humidity,HourlyPrecipIn,Conditions,Clouds,dailyrainin,SolarRadiationWatts/m^2,SoftwareType,DateUTC
2013-05-16 00:23:00,54.0,34.0,-100.00,NNW,345,2.0,6.0,46,0.00,,,0.00,1.000000,,2013-05-16 04:23:00,
2013-05-16 00:33:00,54.0,34.0,-100.00,NNW,345,2.0,6.0,46,0.00,,,0.00,1.000000,,2013-05-16 04:33:00,
2013-05-16 00:42:00,54.0,34.0,-100.00,NNW,345,2.0,6.0,46,0.00,,,0.00,1.000000,,2013-05-16 04:42:00,
2013-05-16 00:53:00,54.0,34.0,-100.00,NNW,345,2.0,6.0,46,0.00,,,0.00,1.000000,,2013-05-16 04:53:00,
2013-05-16 01:22:00,51.0,35.0,-100.00,NNW,329,1.0,7.0,54,0.00,,,0.00,1.000000,,2013-05-16 05:22:00,
2013-05-16 01:32:00,51.0,35.0,-100.00,NNW,329,1.0,7.0,54,0.00,,,0.00,1.000000,,2013-05-16 05:32:00,
2013-05-16 01:42:00,51.0,35.0,-100.00,NNW,329,1.0,7.0,54,0.00,,,0.00,1.000000,,2013-05-16 05:42:00,
2013-05-16 01:52:00,51.0,35.0,-100.00,NNW,329,1.0,7.0,54,0.00,,,0.00,1.000000,,2013-05-16 05:52:00,
2013-05-16 02:22:00,45.0,35.0,-100.00,NE,49,0.0,3.0,67,0.00,,,0.00,1.000000,,2013-05-16 06:22:00,
2013-05-16 03:24:00,42.0,36.0,-100.00,NE,42,1.0,3.0,78,0.00,,,0.00,1.000000,,2013-05-16 07:24:00,
2013-05-16 03:34:00,42.0,36.0,-100.00,NE,42,1.0,3.0,78,0.00,,,0.00,1.000000,,2013-05-16 07:34:00,
2013-05-16 03:44:00,42.0,36.0,-100.00,NE,42,1.0,3.0,78,0.00,,,0.00,1.000000,,2013-05-16 07:44:00,
2013-05-16 03:54:00,42.0,36.0,-100.00,NE,42,1.0,3.0,78,0.00,,,0.00,1.000000,,2013-05-16 07:54:00,
2013-05-16 04:24:00,39.0,35.0,-100.00,NE,46,0.0,0.0,85,0.00,,,-99.99,1.000000,,2013-05-16 08:24:00,
2013-05-16 04:34:00,39.0,35.0,-100.00,NE,46,0.0,0.0,85,0.00,,,-99.99,1.000000,,2013-05-16 08:34:00,
2013-05-16 04:45:00,39.0,35.0,-100.00,NE,46,0.0,0.0,85,0.00,,,-99.99,1.000000,,2013-05-16 08:45:00,
2013-05-16 04:54:00,39.0,35.0,-100.00,NE,46,0.0,0.0,85,0.00,,,-99.99,1.000000,,2013-05-16 08:54:00,
2013-05-16 05:24:00,37.0,34.0,-100.00,NE,51,0.0,0.0,90,0.00,,,0.00,1.000000,,2013-05-16 09:24:00,
2013-05-16 05:35:00,37.0,34.0,-100.00,NE,51,0.0,0.0,90,0.00,,,0.00,1.000000,,2013-05-16 09:35:00,
2013-05-16 05:45:00,37.0,34.0,-100.00,NE,51,0.0,0.0,90,0.00,,,0.00,1.000000,,2013-05-16 09:45:00,
2013-05-16 05:55:00,37.0,34.0,-100.00,NE,51,0.0,0.0,90,0.00,,,0.00,1.000000,,2013-05-16 09:55:00,
2013-05-16 05:56:00,35.0,33.0,-100.00,SSE,159,0.0,0.0,94,0.00,,,0.00,1.000000,,2013-05-16 09:56:00,
2013-05-16 06:24:00,35.0,33.0,-100.00,SSE,159,0.0,0.0,94,0.00,,,0.00,1.000000,,2013-05-16 10:24:00,
2013-05-16 06:36:00,35.0,33.0,-100.00,SSE,159,0.0,0.0,94,0.00,,,0.00,1.000000,,2013-05-16 10:36:00,
2013-05-16 06:45:00,35.0,33.0,-100.00,SSE,159,0.0,0.0,94,0.00,,,0.00,1.000000,,2013-05-16 10:45:00,
2013-05-16 06:56:00,33.0,32.0,-100.00,NNE,29,1.0,2.0,95,0.00,,,0.00,7.000000,,2013-05-16 10:56:00,
2013-05-16 07:25:00,33.0,32.0,-100.00,NNE,29,1.0,2.0,95,0.00,,,0.00,7.000000,,2013-05-16 11:25:00,
2013-05-16 07:35:00,33.0,32.0,-100.00,NNE,29,1.0,2.0,95,0.00,,,0.00,7.000000,,2013-05-16 11:35:00,
2013-05-16 07:46:00,33.0,32.0,-100.00,NNE,29,1.0,2.0,95,0.00,,,0.00,7.000000,,2013-05-16 11:46:00,
2013-05-16 08:23:00,46.0,41.0,-100.00,NE,35,4.0,8.0,83,0.00,,,0.00,61.000000,,2013-05-16 12:23:00,
2013-05-16 08:35:00,46.0,41.0,-100.00,NE,35,4.0,8.0,83,0.00,,,0.00,61.000000,,2013-05-16 12:35:00,
2013-05-16 08:45:00,46.0,41.0,-100.00,NE,35,4.0,8.0,83,0.00,,,0.00,61.000000,,2013-05-16 12:45:00,
2013-05-16 08:53:00,46.0,41.0,-100.00,NE,35,4.0,8.0,83,0.00,,,0.00,61.000000,,2013-05-16 12:53:00,
2013-05-16 09:26:00,53.0,36.0,-100.00,NNE,31,6.0,13.0,53,0.00,,,0.00,275.000000,,2013-05-16 13:26:00,
2013-05-16 09:35:00,53.0,36.0,-100.00,NNE,31,6.0,13.0,53,0.00,,,0.00,275.000000,,2013-05-16 13:35:00,
2013-05-16 09:43:00,53.0,36.0,-100.00,NNE,31,6.0,13.0,53,0.00,,,0.00,275.000000,,2013-05-16 13:43:00,
2013-05-16 09:55:00,53.0,36.0,-100.00,NNE,31,6.0,13.0,53,0.00,,,0.00,275.000000,,2013-05-16 13:55:00,
2013-05-16 10:23:00,57.0,36.0,-100.00,NNE,25,5.0,10.0,46,0.00,,,0.00,457.000000,,2013-05-16 14:23:00,
2013-05-16 10:37:00,57.0,36.0,-100.00,NNE,25,5.0,10.0,46,0.00,,,0.00,457.000000,,2013-05-16 14:37:00,
2013-05-16 10:47:00,57.0,36.0,-100.00,NNE,25,5.0,10.0,46,0.00,,,0.00,457.000000,,2013-05-16 14:47:00,
2013-05-16 10:55:00,57.0,36.0,-100.00,NNE,25,5.0,10.0,46,0.00,,,0.00,457.000000,,2013-05-16 14:55:00,
2013-05-16 10:56:00,61.0,36.0,-100.00,NNW,341,5.0,11.0,39,0.00,,,0.00,624.000000,,2013-05-16 14:56:00,
2013-05-16 11:28:00,61.0,36.0,-100.00,NNW,341,5.0,11.0,39,0.00,,,0.00,624.000000,,2013-05-16 15:28:00,
2013-05-16 11:40:00,61.0,36.0,-100.00,NNW,341,5.0,11.0,39,0.00,,,0.00,624.000000,,2013-05-16 15:40:00,
2013-05-16 11:50:00,61.0,36.0,-100.00,NNW,341,5.0,11.0,39,0.00,,,0.00,624.000000,,2013-05-16 15:50:00,
2013-05-16 11:56:00,63.0,31.0,-100.00,NNW,329,7.0,13.0,30,0.00,,,0.00,770.000000,,2013-05-16 15:56:00,
2013-05-16 12:30:00,63.0,31.0,-100.00,NNW,329,7.0,13.0,30,0.00,,,0.00,770.000000,,2013-05-16 16:30:00,
2013-05-16 12:40:00,63.0,-99.9,-100.00,NNW,329,7.0,13.0,30,0.00,,,0.00,770.000000,,2013-05-16 16:40:00,
2013-05-16 12:50:00,63.0,31.0,-100.00,NNW,329,7.0,13.0,30,0.00,,,0.00,770.000000,,2013-05-16 16:50:00,
2013-05-16 12:56:00,65.0,-99.9,-100.00,NW,319,6.0,15.0,25,0.00,,,0.00,873.000000,,2013-05-16 16:56:00,
2013-05-16 13:31:00,65.0,28.0,-100.00,NW,319,6.0,15.0,25,0.00,,,0.00,873.000000,,2013-05-16 17:31:00,
2013-05-16 13:40:00,65.0,28.0,-100.00,NW,319,6.0,15.0,25,0.00,,,0.00,873.000000,,2013-05-16 17:40:00,
2013-05-16 13:50:00,65.0,-99.9,-100.00,NW,319,6.0,15.0,25,0.00,,,0.00,873.000000,,2013-05-16 17:50:00,
2013-05-16 13:56:00,-999.0,-99.9,-100.00,NW,324,7.0,12.0,20,0.00,,,0.00,922.000000,,2013-05-16 17:56:00,
2013-05-16 14:30:00,-999.0,-99.9,-100.00,NW,324,7.0,12.0,20,0.00,,,0.00,922.000000,,2013-05-16 18:30:00,
2013-05-16 14:41:00,-999.0,-99.9,-100.00,NW,324,7.0,12.0,20,0.00,,,0.00,922.000000,,2013-05-16 18:41:00,
2013-05-16 14:51:00,-999.0,-99.9,-100.00,NW,324,7.0,12.0,20,0.00,,,0.00,922.000000,,2013-05-16 18:51:00,
2013-05-16 14:56:00,68.0,-99.9,-100.00,NNW,335,7.0,14.0,20,0.00,,,0.00,940.000000,,2013-05-16 18:56:00,
2013-05-16 15:30:00,68.0,25.0,-100.00,NNW,335,7.0,14.0,20,0.00,,,0.00,940.000000,,2013-05-16 19:30:00,
2013-05-16 15:40:00,68.0,-99.9,-100.00,NNW,335,7.0,14.0,20,0.00,,,0.00,940.000000,,2013-05-16 19:40:00,
2013-05-16 15:51:00,-999.0,-99.9,-100.00,NNW,335,7.0,14.0,20,0.00,,,0.00,940.000000,,2013-05-16 19:51:00,
2013-05-16 15:56:00,67.0,26.0,-100.00,NNE,26,7.0,14.0,21,0.00,,,0.00,893.000000,,2013-05-16 19:56:00,
2013-05-16 16:30:00,67.0,-99.9,-100.00,NNE,26,7.0,14.0,21,0.00,,,0.00,893.000000,,2013-05-16 20:30:00,
2013-05-16 16:40:00,-999.0,-99.9,-100.00,NNE,26,7.0,14.0,21,0.00,,,0.00,893.000000,,2013-05-16 20:40:00,
2013-05-16 16:50:00,67.0,26.0,-100.00,NNE,26,7.0,14.0,21,0.00,,,0.00,893.000000,,2013-05-16 20:50:00,
2013-05-16 16:56:00,-999.0,-99.9,-100.00,NNW,333,6.0,14.0,20,0.00,,,0.00,799.000000,,2013-05-16 20:56:00,
2013-05-16 17:29:00,67.0,25.0,-100.00,NNW,333,6.0,14.0,20,0.00,,,0.00,799.000000,,2013-05-16 21:29:00,
2013-05-16 17:50:00,67.0,-99.9,-100.00,NNW,333,6.0,14.0,20,0.00,,,0.00,799.000000,,2013-05-16 21:50:00,
2013-05-16 17:56:00,66.0,26.0,-100.00,North,4,7.0,14.0,22,0.00,,,0.00,648.000000,,2013-05-16 21:56:00,
2013-05-16 18:30:00,66.0,26.0,-100.00,North,4,7.0,14.0,22,0.00,,,0.00,648.000000,,2013-05-16 22:30:00,
2013-05-16 18:40:00,66.0,26.0,-100.00,North,4,7.0,14.0,22,0.00,,,0.00,648.000000,,2013-05-16 22:40:00,
2013-05-16 18:50:00,66.0,26.0,-100.00,North,4,7.0,14.0,22,0.00,,,0.00,648.000000,,2013-05-16 22:50:00,
2013-05-16 19:24:00,65.0,32.0,-100.00,NNE,27,5.0,12.0,29,0.00,,,0.00,486.000000,,2013-05-16 23:24:00,
2013-05-16 19:35:00,65.0,32.0,-100.00,NNE,27,5.0,12.0,29,0.00,,,0.00,486.000000,,2013-05-16 23:35:00,
2013-05-16 19:45:00,65.0,32.0,-100.00,NNE,27,5.0,12.0,29,0.00,,,0.00,486.000000,,2013-05-16 23:45:00,
2013-05-16 19:54:00,65.0,32.0,-100.00,NNE,27,5.0,12.0,29,0.00,,,0.00,486.000000,,2013-05-16 23:54:00,
2013-05-16 20:22:00,58.0,31.0,-100.00,ENE,62,5.0,11.0,36,-99.99,,,0.00,220.000000,,2013-05-17 00:22:00,
2013-05-16 20:33:00,58.0,31.0,-100.00,ENE,62,5.0,11.0,36,-99.99,,,0.00,220.000000,,2013-05-17 00:33:00,
2013-05-16 20:43:00,58.0,31.0,-100.00,ENE,62,5.0,11.0,36,-99.99,,,0.00,220.000000,,2013-05-17 00:43:00,
2013-05-16 20:52:00,58.0,31.0,-100.00,ENE,62,5.0,11.0,36,-99.99,,,0.00,220.000000,,2013-05-17 00:52:00,
2013-05-16 21:23:00,54.0,33.0,-100.00,ENE,57,4.0,10.0,44,0.00,,,0.00,70.000000,,2013-05-17 01:23:00,
2013-05-16 21:32:00,54.0,33.0,-100.00,ENE,57,4.0,10.0,44,0.00,,,0.00,70.000000,,2013-05-17 01:32:00,
2013-05-16 21:43:00,54.0,33.0,-100.00,ENE,57,4.0,10.0,44,0.00,,,0.00,70.000000,,2013-05-17 01:43:00,
2013-05-16 21:52:00,54.0,33.0,-100.00,ENE,57,4.0,10.0,44,0.00,,,0.00,70.000000,,2013-05-17 01:52:00,
2013-05-16 22:22:00,50.0,34.0,-100.00,ENE,67,3.0,9.0,53,0.00,,,0.00,5.000000,,2013-05-17 02:22:00,
2013-05-16 22:32:00,50.0,34.0,-100.00,ENE,67,3.0,9.0,53,0.00,,,0.00,5.000000,,2013-05-17 02:32:00,
2013-05-16 22:42:00,50.0,34.0,-100.00,ENE,67,3.0,9.0,53,0.00,,,0.00,5.000000,,2013-05-17 02:42:00,
2013-05-16 22:53:00,50.0,34.0,-100.00,ENE,67,3.0,9.0,53,0.00,,,0.00,5.000000,,2013-05-17 02:53:00,
2013-05-16 23:22:00,47.0,33.0,-100.00,ENE,59,2.0,7.0,58,0.00,,,0.00,1.000000,,2013-05-17 03:22:00,
2013-05-16 23:34:00,47.0,33.0,-100.00,ENE,59,2.0,7.0,58,0.00,,,0.00,1.000000,,2013-05-17 03:34:00,
2013-05-16 23:43:00,47.0,33.0,-100.00,ENE,59,2.0,7.0,58,0.00,,,0.00,1.000000,,2013-05-17 03:43:00,
2013-05-16 23:53:00,47.0,33.0,-100.00,ENE,59,2.0,7.0,58,0.00,,,0.00,1.000000,,2013-05-17 03:53:00,